Meteo Giornale » Osservazioni meteo Austria » Linz-Hoersching

ore: 21:50 - Osservazioni Meteo Linz-Hoersching
Lat. 48° 14' N Lon. 14° 11' E Alt. 298 metri s.l.m.

sereno

18 °C

Sereno

Temp. 24 Ore

15 °C

25 °C

Nord

1.8 Km/h

Dew point 12 °C

Umidità 67 %

Visibilità  10 Km

Il sole sorge alle ore 06:21

Il sole tramonta alle ore 19:45

Data e Ora Cielo e Fenomeni T °C DP °C Um. % Pres. hPa Vis. km Vento km/h
Oggi h: 21:50 sereno Sereno 18 12 67 1021 10 N 1.8
Oggi h: 21:20 sereno Sereno 19 11 59 1021 10 N 1.8
Oggi h: 20:50 sereno Sereno 21 12 56 1021 10 N 3.7
Oggi h: 20:20 sereno Sereno 21 12 56 1021 10 N 3.7
Oggi h: 19:50 sereno Sereno 22 12 53 1020 10 N 5.5
Oggi h: 19:20 sereno Sereno 23 12 49 1020 10 N/NO 9.3
Oggi h: 18:50 sereno Sereno 24 11 43 1020 10 O/NO 11.1
Oggi h: 18:20 sereno Sereno 25 11 41 1020 10 NO 9.3
Oggi h: 17:50 sereno Sereno 25 11 41 1020 10 O/NO 14.8
Oggi h: 17:20 poco_nuvoloso Poco Nuvoloso 25 11 41 1020 10 O/NO 13
Oggi h: 16:50 sereno Sereno 24 12 47 1020 10 O/NO 16.7
Oggi h: 16:20 sereno Sereno 25 11 41 1021 10 O/NO 16.7
Oggi h: 15:50 poco_nuvoloso Poco Nuvoloso 25 11 41 1021 10 O/NO 16.7
Oggi h: 15:20 poco_nuvoloso Poco Nuvoloso 25 12 44 1021 10 O/NO 22.2
Oggi h: 14:50 poco_nuvoloso Poco Nuvoloso 24 11 43 1021 10 NO 18.5
Oggi h: 14:20 nuvoloso Nuvoloso 24 12 47 1021 10 NO 18.5
Oggi h: 13:50 poco_nuvoloso Poco Nuvoloso 23 12 49 1022 10 O/NO 14.8
Oggi h: 13:20 nuvoloso Nuvoloso 23 12 49 1022 10 O/NO 16.7
Oggi h: 12:50 molto_nuvoloso Molto Nuvoloso 24 13 50 1022 10 O/NO 18.5
Oggi h: 12:20 poco_nuvoloso Poco Nuvoloso 23 13 53 1022 10 O/NO 16.7
Oggi h: 11:50 poco_nuvoloso Poco Nuvoloso 23 13 53 1022 10 O 18.5
Oggi h: 11:20 sereno Sereno 22 12 53 1022 10 O 22.2
Oggi h: 10:50 poco_nuvoloso Poco Nuvoloso 22 13 56 1022 10 O 20.3
Oggi h: 10:20 poco_nuvoloso Poco Nuvoloso 21 13 60 1022 10 O/NO 18.5
Oggi h: 09:50 poco_nuvoloso Poco Nuvoloso 20 13 64 1022 10 O/NO 9.3
Oggi h: 09:20 poco_nuvoloso Poco Nuvoloso 19 13 68 1022 10 N 5.5
Oggi h: 08:50 poco_nuvoloso Poco Nuvoloso 19 13 68 1022 10 NO 9.3
Oggi h: 08:20 poco_nuvoloso Poco Nuvoloso 18 13 72 1022 10 O/NO 9.3
Oggi h: 07:50 sereno Sereno 17 13 77 1022 10 O 7.4
Oggi h: 07:20 sereno Sereno 16 12 77 1022 10 NO 7.4
Oggi h: 06:50 poco_nuvoloso Poco Nuvoloso 15 12 82 1021 10 O 9.3
Oggi h: 06:20 sereno Sereno 16 11 72 1021 10 O 9.3
Oggi h: 05:50 sereno Sereno 16 12 77 1021 10 O 7.4
Oggi h: 05:20 poco_nuvoloso Poco Nuvoloso 16 12 77 1021 10 N 5.5
Oggi h: 04:50 sereno Sereno 16 12 77 1021 10 O/SO 7.4
Oggi h: 04:20 sereno Sereno 16 12 77 1021 10 O 14.8
Oggi h: 03:50 sereno Sereno 16 12 77 1021 10 SO 14.8
Oggi h: 03:20 poco_nuvoloso Poco Nuvoloso 16 12 77 1021 10 SO 13
Oggi h: 02:50 poco_nuvoloso Poco Nuvoloso 16 12 77 1021 10 SO 9.3
Oggi h: 02:20 poco_nuvoloso Poco Nuvoloso 17 13 77 1021 10 O/SO 11.1
Oggi h: 01:50 poco_nuvoloso Poco Nuvoloso 17 14 82 1020 10 O 9.3
Oggi h: 01:20 sereno Sereno 17 14 82 1020 10 O/SO 11.1
Oggi h: 00:50 sereno Sereno 18 14 77 1020 10 O 9.3
Oggi h: 00:20 coperto_temporali Temporale 19 14 72 1020 10 SO 13
Ieri h: 23:50 poco_nuvoloso Poco Nuvoloso 20 13 64 1019 10 SO 13
Ieri h: 23:20 sereno Sereno 20 13 64 1019 10 SO 14.8
Ieri h: 22:50 poco_nuvoloso Poco Nuvoloso 20 14 68 1019 10 O/SO 13